Fort Rucker / Ozark, AL

10:31 AM CDT on June 28, 2017 (GMT -0500)
Fort Rucker / Ozark

Weather History for KLOR - March, 2014

Change the Weather History Date:

Saturday, March 22, 2014

  Actual Average (KOZR) Record (KOZR)
Temperature  
Mean Temperature 66 °F -  
Max Temperature 79 °F 69 °F 86 °F (2011)
Min Temperature 52 °F 46 °F 34 °F (2016)
Growing Degree Days 16 (Base 50)    
Moisture  
Dew Point 51 °F    
Average Humidity 74    
Maximum Humidity 97    
Minimum Humidity 31    
Precipitation  
Precipitation 0.00 in - - ()
Sea Level Pressure  
Sea Level Pressure 30.03 in    
Wind  
Wind Speed 1 mph (SSW)    
Max Wind Speed 8 mph    
Max Gust Speed -    
Visibility 7 miles    
Events Fog    
Averages and records for this station are not official NWS values.
T = Trace of Precipitation, MM = Missing Value Source: NWS Daily Summary

Daily Weather History Graph

Daily Weather History Graph

Search for Another Location

Airport or City:

Trip Planner

Search our weather history database for the weather conditions in past years. The results will help you decide how hot, cold, wet, or windy it might be!

Date:

Astronomy

Mar. 22, 2014 Rise Set
Actual Time 6:44 AM CDT 6:55 PM CDT
Civil Twilight 6:20 AM CDT 7:20 PM CDT
Nautical Twilight 5:51 AM CDT 7:48 PM CDT
Astronomical Twilight 5:23 AM CDT 8:17 PM CDT
Moon No Moon Rise 10:45 AM CDT (3/22)
Length of Visible Light 13h 00m
Length of Day
12h 11m
Waning Gibbous, 65% of the Moon is Illuminated
Mar 22
Waning Gibbous
Mar 23
Last Quarter
Mar 30
New
Apr 7
First Quarter
Apr 15
Full

Hourly Weather History & Observations

Time (CDT) Temp. Dew Point Humidity Pressure Visibility Wind Dir Wind Speed Gust Speed Precip Events Conditions
12:53 AM 55.0 °F 51.1 °F 86% 30.02 in 10.0 mi Calm Calm - N/A   Clear
1:53 AM 52.0 °F 48.9 °F 89% 30.03 in 9.0 mi Calm Calm - N/A   Clear
2:53 AM 53.1 °F 50.0 °F 89% 30.01 in 6.0 mi Calm Calm - N/A   Clear
3:53 AM 52.0 °F 48.9 °F 89% 30.02 in 3.0 mi Calm Calm - N/A   Clear
4:53 AM 52.0 °F 48.9 °F 89% 30.03 in 4.0 mi Calm Calm - N/A   Clear
5:37 AM 52.0 °F 48.9 °F 89% 30.04 in 7.0 mi Calm Calm - N/A   Scattered Clouds
5:46 AM 52.0 °F 50.0 °F 93% 30.05 in 6.0 mi Calm Calm - N/A   Mostly Cloudy
5:53 AM 52.0 °F 50.0 °F 93% 30.05 in 6.0 mi Calm Calm - N/A   Mostly Cloudy
6:16 AM 52.0 °F 50.0 °F 93% 30.06 in 5.0 mi Calm Calm - N/A   Overcast
6:53 AM 52.0 °F 50.0 °F 93% 30.06 in 4.0 mi Calm Calm - N/A   Overcast
7:06 AM 52.0 °F 50.0 °F 93% 30.06 in 2.5 mi Calm Calm - N/A   Overcast
7:20 AM 53.1 °F 52.0 °F 96% 30.06 in 1.8 mi Calm Calm - N/A   Overcast
7:34 AM 53.1 °F 52.0 °F 96% 30.07 in 0.2 mi Calm Calm - N/A Fog Fog
7:53 AM 54.0 °F 53.1 °F 97% 30.07 in 0.2 mi Calm Calm - N/A Fog Fog
8:53 AM 55.9 °F 55.0 °F 97% 30.07 in 0.2 mi Calm Calm - N/A Fog Fog
9:15 AM 57.9 °F 55.9 °F 93% 30.09 in 1.2 mi Calm Calm - N/A   Overcast
9:26 AM 57.9 °F 55.9 °F 93% 30.09 in 2.0 mi Calm Calm - N/A   Overcast
9:37 AM 59.0 °F 57.0 °F 93% 30.09 in 4.0 mi Calm Calm - N/A   Mostly Cloudy
9:46 AM 60.1 °F 57.0 °F 90% 30.09 in 6.0 mi Calm Calm - N/A   Scattered Clouds
9:53 AM 61.0 °F 57.0 °F 87% 30.09 in 7.0 mi Calm Calm - N/A   Partly Cloudy
10:53 AM 69.1 °F 55.0 °F 61% 30.07 in 10.0 mi South 3.5 mph - N/A   Clear
11:53 AM 73.9 °F 50.0 °F 43% 30.04 in 10.0 mi Calm Calm - N/A   Clear
12:53 PM 75.0 °F 48.9 °F 40% 30.01 in 10.0 mi SSE 5.8 mph - N/A   Scattered Clouds
1:53 PM 78.1 °F 48.9 °F 36% 29.98 in 10.0 mi ENE 5.8 mph - N/A   Mostly Cloudy
2:53 PM 79.0 °F 46.0 °F 31% 29.96 in 10.0 mi SSW 8.1 mph - N/A   Scattered Clouds
3:53 PM 78.1 °F 48.0 °F 35% 29.95 in 10.0 mi South 8.1 mph - N/A   Mostly Cloudy
4:53 PM 77.0 °F 46.9 °F 34% 29.96 in 10.0 mi SSW 8.1 mph - N/A   Scattered Clouds
5:53 PM 77.0 °F 46.0 °F 33% 29.96 in 10.0 mi West 5.8 mph - N/A   Mostly Cloudy
6:53 PM 73.9 °F 46.0 °F 37% 29.98 in 10.0 mi West 4.6 mph - N/A   Overcast
7:53 PM 69.1 °F 48.0 °F 47% 30.00 in 10.0 mi Calm Calm - N/A   Mostly Cloudy
8:53 PM 62.1 °F 48.9 °F 62% 30.01 in 10.0 mi Calm Calm - N/A   Partly Cloudy
9:53 PM 59.0 °F 51.1 °F 75% 30.03 in 10.0 mi NE 5.8 mph - N/A   Partly Cloudy
10:53 PM 57.9 °F 51.1 °F 78% 30.04 in 10.0 mi Calm Calm - N/A   Partly Cloudy
11:53 PM 57.0 °F 51.1 °F 81% 30.02 in 10.0 mi Calm Calm - N/A   Clear